Time,TemperatureF,DewpointF,PressureIn,WindDirection,WindDirectionDegrees,WindSpeedMPH,WindSpeedGustMPH,Humidity,HourlyPrecipIn,Conditions,Clouds,dailyrainin,SolarRadiationWatts/m^2,SoftwareType,DateUTC
2013-07-12 00:11:00,76.5,71.0,30.08,East,89,6.0,14.0,83,0.01,,,0.01,0,weatherlink.com 1.10,2013-07-12 10:11:00,
2013-07-12 00:26:00,75.7,70.0,30.08,ESE,107,5.0,14.0,83,0.01,,,0.01,0,weatherlink.com 1.10,2013-07-12 10:26:00,
2013-07-12 00:41:00,75.5,71.0,30.07,ESE,109,7.0,12.0,85,0.01,,,0.01,0,weatherlink.com 1.10,2013-07-12 10:41:00,
2013-07-12 00:56:00,75.6,71.0,30.07,ESE,107,12.0,14.0,85,0.01,,,0.01,0,weatherlink.com 1.10,2013-07-12 10:56:00,
2013-07-12 01:11:00,75.7,71.0,30.07,East,88,5.0,14.0,84,0.00,,,0.01,0,weatherlink.com 1.10,2013-07-12 11:11:00,
2013-07-12 01:26:00,75.7,70.0,30.06,ENE,72,8.0,13.0,82,0.00,,,0.01,0,weatherlink.com 1.10,2013-07-12 11:26:00,
2013-07-12 01:41:00,75.7,70.0,30.06,ENE,67,4.0,11.0,83,0.00,,,0.01,0,weatherlink.com 1.10,2013-07-12 11:41:00,
2013-07-12 01:56:00,75.7,70.0,30.06,SE,124,11.0,12.0,83,0.00,,,0.01,0,weatherlink.com 1.10,2013-07-12 11:56:00,
2013-07-12 02:11:00,75.9,70.0,30.05,ESE,119,7.0,11.0,82,0.00,,,0.01,0,weatherlink.com 1.10,2013-07-12 12:11:00,
2013-07-12 02:26:00,76.0,70.0,30.05,ESE,103,9.0,13.0,82,0.00,,,0.01,0,weatherlink.com 1.10,2013-07-12 12:26:00,
2013-07-12 02:41:00,76.1,71.0,30.05,East,88,0.0,9.0,83,0.00,,,0.01,0,weatherlink.com 1.10,2013-07-12 12:41:00,
2013-07-12 02:56:00,75.7,70.0,30.05,ENE,78,5.0,9.0,81,0.00,,,0.01,0,weatherlink.com 1.10,2013-07-12 12:56:00,
2013-07-12 03:11:00,75.9,71.0,30.05,ENE,78,4.0,9.0,84,0.00,,,0.01,0,weatherlink.com 1.10,2013-07-12 13:11:00,
2013-07-12 03:26:00,75.5,69.0,30.05,East,98,7.0,10.0,81,0.00,,,0.01,0,weatherlink.com 1.10,2013-07-12 13:26:00,
2013-07-12 03:41:00,75.8,70.0,30.05,SE,128,0.0,11.0,83,0.00,,,0.01,0,weatherlink.com 1.10,2013-07-12 13:41:00,
2013-07-12 03:56:00,76.1,71.0,30.05,ENE,59,2.0,11.0,84,0.00,,,0.01,0,weatherlink.com 1.10,2013-07-12 13:56:00,
2013-07-12 04:11:00,76.0,71.0,30.05,East,95,6.0,7.0,85,0.00,,,0.01,0,weatherlink.com 1.10,2013-07-12 14:11:00,
2013-07-12 04:26:00,75.5,71.0,30.05,NNE,23,1.0,10.0,87,0.00,,,0.01,0,weatherlink.com 1.10,2013-07-12 14:26:00,
2013-07-12 04:41:00,75.1,71.0,30.04,NE,49,3.0,11.0,87,0.00,,,0.01,0,weatherlink.com 1.10,2013-07-12 14:41:00,
2013-07-12 04:57:00,75.0,71.0,30.04,ESE,107,4.0,8.0,88,0.00,,,0.01,0,weatherlink.com 1.10,2013-07-12 14:57:00,
2013-07-12 05:11:00,74.9,71.0,30.04,East,96,2.0,8.0,87,0.00,,,0.01,0,weatherlink.com 1.10,2013-07-12 15:11:00,
2013-07-12 05:26:00,74.9,71.0,30.04,East,86,2.0,10.0,87,0.00,,,0.01,0,weatherlink.com 1.10,2013-07-12 15:26:00,
2013-07-12 05:41:00,75.0,71.0,30.04,East,98,9.0,9.0,87,0.00,,,0.01,0,weatherlink.com 1.10,2013-07-12 15:41:00,
2013-07-12 05:56:00,75.0,71.0,30.04,ESE,102,8.0,9.0,87,0.00,,,0.01,0,weatherlink.com 1.10,2013-07-12 15:56:00,
2013-07-12 06:11:00,75.1,71.0,30.04,East,86,8.0,13.0,87,0.00,,,0.01,25,weatherlink.com 1.10,2013-07-12 16:11:00,
2013-07-12 06:26:00,75.3,71.0,30.05,ESE,104,7.0,12.0,85,0.00,,,0.01,25,weatherlink.com 1.10,2013-07-12 16:26:00,
2013-07-12 06:41:00,75.6,71.0,30.05,East,92,4.0,10.0,84,0.00,,,0.01,51,weatherlink.com 1.10,2013-07-12 16:41:00,
2013-07-12 06:56:00,76.0,71.0,30.05,SE,136,7.0,12.0,85,0.00,,,0.01,130,weatherlink.com 1.10,2013-07-12 16:56:00,
2013-07-12 07:12:00,76.6,72.0,30.05,ENE,71,6.0,13.0,84,0.00,,,0.01,309,weatherlink.com 1.10,2013-07-12 17:12:00,
2013-07-12 07:27:00,76.8,71.0,30.05,ENE,74,6.0,11.0,82,0.00,,,0.01,339,weatherlink.com 1.10,2013-07-12 17:27:00,
2013-07-12 07:41:00,78.9,71.0,30.05,East,97,7.0,14.0,77,0.00,,,0.01,100,weatherlink.com 1.10,2013-07-12 17:41:00,
2013-07-12 07:57:00,78.3,71.0,30.05,ESE,102,6.0,12.0,79,0.00,,,0.01,599,weatherlink.com 1.10,2013-07-12 17:57:00,
2013-07-12 08:12:00,79.9,72.0,30.05,East,88,9.0,13.0,76,0.00,,,0.01,520,weatherlink.com 1.10,2013-07-12 18:12:00,
2013-07-12 08:27:00,78.8,71.0,30.05,East,84,4.0,12.0,77,0.00,,,0.01,141,weatherlink.com 1.10,2013-07-12 18:27:00,
2013-07-12 08:42:00,78.2,72.0,30.05,East,95,7.0,16.0,80,0.00,,,0.01,206,weatherlink.com 1.10,2013-07-12 18:42:00,
2013-07-12 09:27:00,79.7,72.0,30.05,North,10,7.0,14.0,77,0.00,,,0.01,415,weatherlink.com 1.10,2013-07-12 19:27:00,
2013-07-12 09:42:00,80.8,71.0,30.05,East,95,6.0,13.0,73,0.00,,,0.01,306,weatherlink.com 1.10,2013-07-12 19:42:00,
2013-07-12 10:12:00,80.4,73.0,30.05,East,80,7.0,16.0,78,0.00,,,0.01,411,weatherlink.com 1.10,2013-07-12 20:12:00,
2013-07-12 10:27:00,82.4,73.0,30.05,East,101,11.0,16.0,74,0.00,,,0.01,902,weatherlink.com 1.10,2013-07-12 20:27:00,
2013-07-12 10:42:00,82.6,73.0,30.05,East,101,11.0,13.0,72,0.00,,,0.01,909,weatherlink.com 1.10,2013-07-12 20:42:00,
2013-07-12 10:57:00,82.7,72.0,30.05,SE,139,8.0,13.0,71,0.00,,,0.01,928,weatherlink.com 1.10,2013-07-12 20:57:00,
2013-07-12 11:12:00,82.5,73.0,30.05,East,80,7.0,14.0,72,0.00,,,0.01,983,weatherlink.com 1.10,2013-07-12 21:12:00,
2013-07-12 11:58:00,78.6,71.0,30.06,East,87,11.0,19.0,78,0.00,,,0.01,406,weatherlink.com 1.10,2013-07-12 21:58:00,
2013-07-12 12:13:00,77.2,72.0,30.05,East,79,5.0,11.0,85,0.00,,,0.01,619,weatherlink.com 1.10,2013-07-12 22:13:00,
2013-07-12 12:28:00,81.4,73.0,30.04,NE,36,0.0,6.0,76,0.00,,,0.01,946,weatherlink.com 1.10,2013-07-12 22:28:00,
2013-07-12 12:43:00,81.4,73.0,30.04,NE,34,4.0,6.0,75,0.00,,,0.01,577,weatherlink.com 1.10,2013-07-12 22:43:00,
2013-07-12 12:58:00,82.5,72.0,30.03,East,80,5.0,11.0,70,0.00,,,0.01,772,weatherlink.com 1.10,2013-07-12 22:58:00,
2013-07-12 13:13:00,80.6,71.0,30.03,ENE,61,5.0,13.0,72,0.00,,,0.01,626,weatherlink.com 1.10,2013-07-12 23:13:00,
2013-07-12 13:43:00,80.9,71.0,30.02,SE,124,8.0,11.0,72,0.00,,,0.01,513,weatherlink.com 1.10,2013-07-12 23:43:00,
2013-07-12 13:58:00,80.1,72.0,30.02,East,94,6.0,13.0,76,0.00,,,0.01,425,weatherlink.com 1.10,2013-07-12 23:58:00,
2013-07-12 14:29:00,80.2,72.0,30.02,East,84,9.0,15.0,77,0.00,,,0.01,679,weatherlink.com 1.10,2013-07-13 00:29:00,
2013-07-12 14:44:00,80.6,73.0,30.02,NE,43,6.0,13.0,78,0.00,,,0.01,851,weatherlink.com 1.10,2013-07-13 00:44:00,
2013-07-12 14:59:00,80.9,74.0,30.01,SSE,153,5.0,14.0,79,0.00,,,0.01,1062,weatherlink.com 1.10,2013-07-13 00:59:00,
2013-07-12 15:14:00,80.0,73.0,30.01,North,11,9.0,12.0,79,0.00,,,0.01,357,weatherlink.com 1.10,2013-07-13 01:14:00,
2013-07-12 15:29:00,79.6,73.0,30.01,NNE,22,5.0,13.0,79,0.00,,,0.01,301,weatherlink.com 1.10,2013-07-13 01:29:00,
2013-07-12 15:44:00,79.1,73.0,30.01,East,80,8.0,17.0,81,0.00,,,0.01,271,weatherlink.com 1.10,2013-07-13 01:44:00,
2013-07-12 15:59:00,78.5,72.0,30.01,ENE,68,8.0,15.0,81,0.00,,,0.01,287,weatherlink.com 1.10,2013-07-13 01:59:00,
2013-07-12 16:14:00,78.1,71.0,30.01,ESE,114,4.0,13.0,79,0.00,,,0.01,294,weatherlink.com 1.10,2013-07-13 02:14:00,
2013-07-12 16:59:00,78.0,71.0,30.00,East,94,7.0,14.0,80,0.00,,,0.01,200,weatherlink.com 1.10,2013-07-13 02:59:00,
2013-07-12 17:59:00,77.0,72.0,30.01,ESE,103,5.0,15.0,83,0.00,,,0.01,86,weatherlink.com 1.10,2013-07-13 03:59:00,
2013-07-12 18:15:00,77.1,72.0,30.01,ESE,110,11.0,15.0,83,0.00,,,0.01,54,weatherlink.com 1.10,2013-07-13 04:15:00,
2013-07-12 18:30:00,77.0,71.0,30.01,East,94,7.0,15.0,82,0.00,,,0.01,42,weatherlink.com 1.10,2013-07-13 04:30:00,
2013-07-12 18:45:00,77.0,70.0,30.02,ESE,108,6.0,13.0,79,0.00,,,0.01,21,weatherlink.com 1.10,2013-07-13 04:45:00,
2013-07-12 19:00:00,77.3,70.0,30.02,ESE,114,10.0,18.0,78,0.00,,,0.01,14,weatherlink.com 1.10,2013-07-13 05:00:00,
2013-07-12 19:15:00,77.3,70.0,30.02,ESE,114,13.0,17.0,79,0.00,,,0.01,0,weatherlink.com 1.10,2013-07-13 05:15:00,
2013-07-12 19:30:00,77.1,71.0,30.02,SE,132,13.0,17.0,80,0.00,,,0.01,0,weatherlink.com 1.10,2013-07-13 05:30:00,
2013-07-12 19:45:00,76.8,70.0,30.03,ESE,114,12.0,18.0,80,0.00,,,0.01,0,weatherlink.com 1.10,2013-07-13 05:45:00,
2013-07-12 20:00:00,76.9,71.0,30.03,East,92,6.0,17.0,81,0.00,,,0.01,0,weatherlink.com 1.10,2013-07-13 06:00:00,
2013-07-12 20:15:00,77.0,72.0,30.03,East,101,9.0,15.0,83,0.00,,,0.01,0,weatherlink.com 1.10,2013-07-13 06:15:00,
2013-07-12 20:30:00,77.0,72.0,30.04,SSE,162,7.0,13.0,83,0.00,,,0.01,0,weatherlink.com 1.10,2013-07-13 06:30:00,
2013-07-12 20:45:00,77.0,70.0,30.04,ESE,107,8.0,18.0,79,0.00,,,0.01,0,weatherlink.com 1.10,2013-07-13 06:45:00,
2013-07-12 21:00:00,77.2,71.0,30.04,East,81,8.0,15.0,81,0.00,,,0.01,0,weatherlink.com 1.10,2013-07-13 07:00:00,
2013-07-12 21:15:00,77.0,70.0,30.05,ESE,110,6.0,15.0,80,0.00,,,0.01,0,weatherlink.com 1.10,2013-07-13 07:15:00,
2013-07-12 21:32:00,77.1,71.0,30.05,ESE,119,10.0,16.0,81,0.00,,,0.01,0,weatherlink.com 1.10,2013-07-13 07:32:00,
2013-07-12 21:47:00,77.0,71.0,30.05,East,100,10.0,17.0,81,0.00,,,0.01,0,weatherlink.com 1.10,2013-07-13 07:47:00,
2013-07-12 22:02:00,77.0,71.0,30.05,SSE,147,9.0,15.0,81,0.00,,,0.01,0,weatherlink.com 1.10,2013-07-13 08:02:00,
2013-07-12 22:17:00,77.1,71.0,30.05,ESE,108,8.0,15.0,80,0.00,,,0.01,0,weatherlink.com 1.10,2013-07-13 08:17:00,
2013-07-12 22:32:00,77.1,71.0,30.05,East,92,7.0,13.0,80,0.00,,,0.01,0,weatherlink.com 1.10,2013-07-13 08:32:00,
2013-07-12 22:47:00,77.0,70.0,30.05,East,84,3.0,14.0,80,0.00,,,0.01,0,weatherlink.com 1.10,2013-07-13 08:47:00,
2013-07-12 23:02:00,77.0,70.0,30.05,East,87,8.0,16.0,80,0.00,,,0.01,0,weatherlink.com 1.10,2013-07-13 09:02:00,
2013-07-12 23:17:00,76.8,70.0,30.05,ESE,103,10.0,12.0,79,0.00,,,0.01,0,weatherlink.com 1.10,2013-07-13 09:17:00,
2013-07-12 23:32:00,76.7,70.0,30.05,East,81,7.0,15.0,79,0.00,,,0.01,0,weatherlink.com 1.10,2013-07-13 09:32:00,
2013-07-12 23:46:00,76.8,70.0,30.04,East,91,5.0,12.0,79,0.00,,,0.01,0,weatherlink.com 1.10,2013-07-13 09:46:00,